Weather in Balkhashino

Kazakhstan     52°31′14″N   68°45′12″E
temp.,
°C
wind,
m/s
gust,
m/s
humid.,
%
clouds,
%
prec.,
mm/h
press.,
hPa
HPBL,
m
20 april, tue
tue2000:00−5ne48465 0.0 10311218
03:00−5ne48440 0.0 10311148
06:00−5ne48430 0.0 10321104
09:00−4ne57350 0.0 10331287
12:00−1ne56290 0.0 10321482
15:00+1nne45270 0.0 10301597
18:00+1nne34280 0.0 10301475
21:00−2n22460 0.0 103123
21 april, wed
wed2100:00−3n22500 0.0 103129
03:00−2wnw22485 0.0 103025
06:00−2wnw38506 0.0 1031221
09:00+2wnw610405 0.0 1030525
12:00+7nw68414 0.0 10291317
15:00+9nnw694398 0.0 10291947
18:00+8n685491 0.0 10301422
21:00+4nnw35695 0.0 1033102
22 april, thu
thu2200:00+2ne35725 0.0 103598
03:000ne33670 0.0 103738
06:000ene22710 0.0 103834
09:00+3e33550 0.0 1041500
12:00+6ese44440 0.0 10411056
15:00+7se33340 0.0 10411341
18:00+8se44310 0.0 10411352
21:00+5se374834 0.0 1042125
23 april, fri
fri2300:00+3se4105585 0.0 1042273
03:00+1se4116340 0.0 1042284
06:000se41168100 0.0 1042240
09:00+3sse595297 0.0 1042474
12:00+7sse673999 0.0 10411115
15:00+9sse6731100 0.0 10391441
18:00+9sse573097 0.0 10381411
21:00+6sse364371 0.0 1038101
24 april, sat
sat2400:00+4se495179 0.0 1037167
03:00+3se4115690 0.0 1035208
06:00+1se41059100 0.0 1035185
09:00+4sse5948100 0.0 1035375
12:00+8sse7832100 0.0 10321057
15:00+10sse7827100 0.0 10301349
18:00+10sse5729100 0.0 10281427
21:00+8se61138100 0.0 1028402